Weather History for KGRK - November, 2012

Change the Weather History Date:

Saturday, November 3, 2012

  Actual Average Record
Temperature  
Mean Temperature 72 °F -  
Max Temperature 82 °F 69 °F 82 °F (2001)
Min Temperature 62 °F 51 °F 33 °F (1999)
Cooling Degree Days 7    
Growing Degree Days 22 (Base 50)    
Moisture  
Dew Point 61 °F    
Average Humidity 78    
Maximum Humidity 100    
Minimum Humidity 39    
Precipitation  
Precipitation 0.00 in - - ()
Sea Level Pressure  
Sea Level Pressure 30.03 in    
Wind  
Wind Speed 7 mph (SSE)    
Max Wind Speed 15 mph    
Max Gust Speed 21 mph    
Visibility 7 miles    
Events Fog , Thunderstorm    
Averages and records for this station are not official NWS values.
T = Trace of Precipitation, MM = Missing Value Source: NWS Daily Summary

Daily Weather History Graph

Daily Weather History Graph

Search for Another Location

Airport or City:

Trip Planner

Search our weather history database for the weather conditions in past years. The results will help you decide how hot, cold, wet, or windy it might be!

Date:

Astronomy

Nov. 03, 2012 Rise Set
Actual Time 7:48 AM CDT 6:40 PM CDT
Civil Twilight 7:23 AM CDT 7:05 PM CDT
Nautical Twilight 6:54 AM CDT 7:34 PM CDT
Astronomical Twilight 6:26 AM CDT 8:02 PM CDT
Moon 10:28 PM CDT (11/3) 11:47 AM CDT (11/3)
Length of Visible Light 11h 42m
Length of Day
10h 52m
Waning Gibbous, 80% of the Moon is Illuminated
Nov 3
Waning Gibbous
Nov 6
Last Quarter
Nov 13
New
Nov 20
First Quarter
Nov 28
Full

Hourly Weather History & Observations

Time (CDT) Temp. Heat Index Dew Point Humidity Pressure Visibility Wind Dir Wind Speed Gust Speed Precip Events Conditions
12:55 AM 66.2 °F - 59.0 °F 78% 29.99 in 7.0 mi South 8.1 mph - N/A   Clear
1:55 AM 64.4 °F - 60.8 °F 88% 29.99 in 7.0 mi South 9.2 mph - N/A   Clear
2:55 AM 64.4 °F - 62.6 °F 94% 29.99 in 7.0 mi South 8.1 mph - N/A   Clear
3:55 AM 64.4 °F - 62.6 °F 94% 29.99 in 7.0 mi South 6.9 mph - N/A   Clear
4:55 AM 62.6 °F - 60.8 °F 94% 29.99 in 7.0 mi South 8.1 mph - N/A   Clear
5:40 AM 64.4 °F - 62.6 °F 94% 30.00 in 7.0 mi South 8.1 mph - N/A   Mostly Cloudy
5:55 AM 64.4 °F - 62.6 °F 94% 30.01 in 7.0 mi South 8.1 mph - N/A   Mostly Cloudy
6:44 AM 62.6 °F - 62.6 °F 100% 30.01 in 7.0 mi South 8.1 mph - N/A   Partly Cloudy
6:55 AM 62.6 °F - 62.6 °F 100% 30.03 in 7.0 mi South 5.8 mph - N/A   Partly Cloudy
7:27 AM 62.6 °F - 60.8 °F 94% 30.01 in 6.0 mi SSE 5.8 mph - N/A Fog Partly Cloudy
7:55 AM 62.6 °F - 60.8 °F 94% 30.05 in 5.0 mi SSE 6.9 mph - N/A Fog Partly Cloudy
8:22 AM 62.6 °F - 60.8 °F 94% 30.05 in 5.0 mi SSE 4.6 mph - N/A   Scattered Clouds
8:41 AM 64.4 °F - 62.6 °F 94% 30.05 in 3.0 mi South 3.5 mph - N/A   Overcast
8:55 AM 64.4 °F - 62.6 °F 94% 30.08 in 5.0 mi SSE 3.5 mph - N/A   Mostly Cloudy
9:29 AM 66.2 °F - 64.4 °F 94% 30.09 in 6.0 mi Calm Calm - N/A   Mostly Cloudy
9:55 AM 68.0 °F - 64.4 °F 88% 30.09 in 7.0 mi SSE 3.5 mph - N/A   Scattered Clouds
10:55 AM 73.4 °F - 66.2 °F 78% 30.10 in 7.0 mi South 11.5 mph - N/A   Scattered Clouds
11:55 AM 80.6 °F 81.8 °F 62.6 °F 54% 30.09 in 7.0 mi SSW 12.7 mph 20.7 mph N/A   Scattered Clouds
12:55 PM 80.6 °F 81.8 °F 62.6 °F 54% 30.06 in 7.0 mi South 11.5 mph - N/A   Scattered Clouds
1:55 PM 82.4 °F 83.9 °F 64.4 °F 54% 30.03 in 7.0 mi South 9.2 mph - N/A   Scattered Clouds
2:55 PM 80.6 °F 81.5 °F 60.8 °F 51% 30.00 in 7.0 mi WSW 5.8 mph - N/A Thunderstorm Mostly Cloudy
3:55 PM 82.4 °F 81.7 °F 55.4 °F 39% 29.99 in 7.0 mi SE 6.9 mph - N/A   Mostly Cloudy
4:55 PM 82.4 °F 81.7 °F 55.4 °F 39% 29.99 in 7.0 mi SE 3.5 mph - N/A Thunderstorm Thunderstorm
5:55 PM 75.2 °F - 57.2 °F 53% 30.00 in 7.0 mi SE 12.7 mph - N/A Thunderstorm Thunderstorm
6:55 PM 71.6 °F - 55.4 °F 57% 30.03 in 7.0 mi ESE 15.0 mph - N/A   Mostly Cloudy
7:55 PM 66.2 °F - 59.0 °F 78% 30.06 in 7.0 mi SE 8.1 mph - N/A   Mostly Cloudy
8:55 PM 66.2 °F - 57.2 °F 73% 30.07 in 7.0 mi SSE 4.6 mph - N/A   Scattered Clouds
9:55 PM 64.4 °F - 57.2 °F 77% 30.06 in 7.0 mi SSE 6.9 mph - N/A   Partly Cloudy
10:55 PM 62.6 °F - 57.2 °F 82% 30.07 in 7.0 mi South 5.8 mph - N/A   Partly Cloudy
11:55 PM 64.4 °F - 57.2 °F 77% 30.07 in 7.0 mi South 5.8 mph - N/A   Scattered Clouds